Regional Weather Roundup
Issued by NWS Newport/Morehead, NC

Current Version | Previous Version | Graphics & Text | Print | Product List | Glossary Off
Versions: 1 2 3 4 5 6 7 8 9 10 11 12 13 14 15 16 17 18 19 20 21 22 23 24 25 26 27 28 29 30 31 32 33 34 35 36 37 38 39 40 41 42

000
ASUS42 KMHX 220125
RWRMHX
WEATHER ROUNDUP FOR EASTERN NORTH CAROLINA
NATIONAL WEATHER SERVICE NEWPORT/MOREHEAD CITY NC
900 PM EDT SAT APR 21 2018

NOTE: "FAIR" INDICATES FEW OR NO CLOUDS BELOW 12,000 FEET
WITH NO SIGNIFICANT WEATHER AND/OR OBSTRUCTIONS TO VISIBILITY

NCZ015>017-031-032-045>047-102-103-220200-
NORTH COAST

CITY           SKY/WX    TMP DP  RH WIND       PRES   REMARKS
EDENTON        FAIR      53  44  73 SE7       30.40S
ELIZABETH CITY FAIR      49  39  68 SE6       30.40R
KITTY HAWK     FAIR      46  37  68 CALM      30.40R
MANTEO         FAIR      46  38  72 SE3       30.42R

$$

NCZ045>047-081-094-103-104-220200-
CENTRAL COAST

CITY           SKY/WX    TMP DP  RH WIND       PRES   REMARKS
FRISCO         FAIR      50  41  71 NE7       30.41R

$$

NCZ095-097-098-100-101-220200-
SOUTHERN COAST

CITY           SKY/WX    TMP DP  RH WIND       PRES   REMARKS
BEAUFORT       FAIR      55  41  59 E6        30.38R
CEDAR ISLAND   NOT AVBL
JACKSONVILLE   FAIR      58  41  53 E9        30.37R
PINEY ISLAND   NOT AVBL
WILMINGTON     FAIR      57  43  59 E5        30.37R


$$

NCZ011>013-027>030-043-044-078>080-089-090>093-098-220200-
COASTAL PLAIN

CITY           SKY/WX    TMP DP  RH WIND       PRES   REMARKS
AHOSKIE        FAIR      54  43  66 SE5       30.37R
CLINTON        FAIR      59  40  48 CALM      30.36R
ELIZABETHTOWN  FAIR      58  33  38 MISG      30.35R
GOLDSBORO      FAIR      59  40  49 SE5       30.34R
GREENVILLE     FAIR      57  41  54 SE6       30.38R
HAVELOCK       CLEAR     54  42  64 E5        30.39R
KENANSVILLE    FAIR      55  41  58 CALM      30.37R
KINSTON        FAIR      59  41  51 SE6       30.37R
NEW BERN       FAIR      53  40  61 S5        30.39R
RICHLANDS      FAIR      53  40  61 CALM      30.38R
ROCKY MOUNT    FAIR      52  42  69 CALM      30.35R
WASHINGTON     FAIR      53  43  69 E5        30.39R
WHITEVILLE     FAIR      58  40  50 CALM      30.35R

$$

AMZ130-135-150-152-154-156-158-170-250-252-270-ANZ085-086-088-633-658-670-220200-
MARINE OBSERVATIONS

STATION/POSITION TIME  TEMP    WIND        PRES    WAVE   SWELL
                       AIR SEA DIR/SP/G            HT/PER HT/PER
                 (UTC) (F)     (DEG/KT/KT) (MB)    (FT/S) (FT/S)
CHESAPEAKE LIGHT NOT AVBL
64 E VA BEACH    0050   48 49  100/  8/ 10 1030.1    2/ 6   2/ 6
DUCK             0100   49 53  110/  9/ 10 1029.1
2 E DUCK         0100      52                N/A     2/ 5
OREGON INLET     0100   48 56   70/  6/  9 1029.7
13E OREGON INLT  0048      51                N/A     3/ 5   2/ 5
HATTERAS CG      0100   52 62   90/  6/  8 1029.4
DIAMOND BUOY     0110   58 73   20/ 14/ 16 1029.5
CAPE LOOKOUT     0100          100/ 10/ 11 1029.0
BEAUFORT LAB     0100   57 64  110/  5/  7 1028.9
30 SE NEW RVR IN 0108   61 66  100/ 12/ 14 1028.3
30 SE NEW RVR IN 0100      66                N/A     3/ 8
27 SE WRIGHTSVLE 0108   63 66  110/ 14/ 21 1028.4
5 SE WRIGHTSVLE  0108   61 60  110/  8/ 12 1027.8
225 S CAPE HAT   0110   65 72   70/ 12/ 16 1026.7
41 SE CHARLESTON 0110   66 67   70/ 16/ 19 1026.4

$$




USA.gov is the U.S. government's official web portal to all federal, state and local government web resources and services.